Wormley Airport

Jump to: basic info | weather | runways | comments

Related pages: nearby airports | nearby navaids | notams | map

Basic information (top)

Codes: 85LL
Location: lon 41.683899, lat -88.262299, elev 680 ft / 207 m msl
Status: small_airport

Weather (top)

Current conditions for Lewis University Airport 9nm (16km) ESE (rec'd 2015/01/29 21:55Z):

KLOT 292155Z AUTO 33016G20KT 10SM OVC022 01/M03 A3008

Airport forecast for Dupage Airport 13nm (25km) N (rec'd 2015/01/29 18:39Z):

TAF KDPA 291738Z 2918/3018 33018G29KT P6SM OVC015 
     FM300000 33016G24KT P6SM OVC020 
     FM300900 33012G18KT P6SM BKN020 
     FM301500 33008KT P6SM SCT020 SCT150

Runways (top)

N/S: 2,300 x 100 ft (701 x 30 m) — grass — not lighted

Latest comments (top)

No comments yet for Wormley Airport

More... (top)

See also NOTAMs and nearby airports and navaids, or visit the Wormley Airport page at the main OurAirports website..